Location: Hoyos del Collado
(40.3594°N, 5.2003°W)
Time: 11:10:36
(UTC+00:00)

Cosmos 1300 Rocket - Pass Details

Date: 18 April 2024
Orbit: 598 x 623 km, 82.5° (Epoch: 21 May)

Event Time Altitude Azimuth Distance (km) Brightness Sun altitude
Rises 19:43:58 0° 187° (S) 2,861 6.8 -8.2°
Reaches altitude 10° 19:46:09 10° 188° (S) 1,965 6.0 -8.5°
Maximum altitude 19:50:31 85° 278° (W) 625 3.6 -9.3°
Drops below altitude 10° 19:54:57 10° 7° (N) 1,994 6.4 -10.1°
Sets 19:57:12 0° 8° (N) 2,908 7.2 -10.5°
